Torna al catalogo

STARLINK-11720

AttivoComunicazioniVLEO
NORAD 64131·PAYLOAD·🇺🇸 United States

Lanciato May 24, 2025 da Cape Canaveral Space Force Station

Loading…

Prossimi Passaggi (prossime 24 ore)

TLE

AggiornatoSource: CelesTrak SupGP

Epoca: Sep 14, 2026, 21:14 UTC

1 64131C 25111J   26257.88520833  .00003293  00000+0  25584-4 0  2575
2 64131  43.0005 273.2320 0001593 255.5434 224.0516 15.70830826    15

Traccia STARLINK-11720 in tempo reale con AllMySat

Download on the App Store